[[{"header":{"parameterUnit":"m.s-1","parameterCategory":1,"la1":30.2991,"la2":30.254,"lo1":-89.0895,"lo2":-89.0444,"dy":0.0017,"dx":0.0017,"nx":28,"ny":28,"refTime":"2023-08-01T03:00:00:Z","depth":0,"parameterNumber":2,"parameterNumberName":"U-component_of_WINDS"},"data":[0,0,0,0,0,0,0,0,0,0,0,0,0,0,0,0,0,0,0,0,0,0,0,0,0,0,0,0,0,0,0,0,0,0,0,0,0,0,0,0,0,0,0,0,0,0,0,0,0,0,0,0,0,0,0,0,0,0,0.6883,0.6884,0,0.6969,0.697,0.6971,0.7004,0.7003,0.7003,0.7003,0.7091,0.7094,0.7096,0,0,0,0,0,0,0,0,0,0,0,0,0,0.6748,0.675,0.6883,0.6884,0.6885,0.6968,0.697,0.6971,0.7004,0.7003,0.7003,0.7003,0.7091,0.7094,0.7097,0,0,0,0,0,0,0,0,0,0,0,0,0,0.6817,0.6751,0.6883,0.6912,0.6915,0.6968,0.697,0.6971,0.7004,0.7003,0.7003,0.7003,0.709,0.7093,0.7097,0.7128,0,0,0.7109,0.7111,0,0,0,0,0,0,0,0,0.6813,0.6822,0.6906,0.691,0.6914,0.6975,0.6954,0.7024,0.7004,0.697,0.7003,0.7003,0.7053,0.706,0.7077,0.7132,0.7136,0.7109,0.7112,0.7113,0.7114,0,0,0,0,0,0,0,0.6808,0.6819,0.6917,0.6907,0.6912,0.692,0.693,0.6968,0.7013,0.6973,0.6976,0.6985,0.7055,0.7073,0.7079,0.7137,0.7109,0.7113,0.7115,0.7116,0.7222,0.7222,0,0,0,0,0,0,0.6799,0.6814,0.6914,0.6919,0.6861,0.6923,0.6933,0.6956,0.7012,0.702,0.6985,0.6986,0.7066,0.7074,0.7082,0.7122,0.7113,0.7117,0.7119,0.7222,0.7222,0.7223,0,0,0,0,0,0,0.6796,0.6807,0.6911,0.6868,0.6881,0.6926,0.695,0.6958,0.6976,0.7022,0.703,0.6996,0.7067,0.7077,0.7116,0.7125,0.7119,0.7122,0.7221,0.7222,0.7222,0.7202,0,0,0,0,0,0,0.6792,0.6806,0.6818,0.6868,0.6884,0.6943,0.6951,0.696,0.6982,0.6984,0.7033,0.7041,0.7067,0.711,0.712,0.7131,0.7125,0.722,0.7221,0.7222,0.7202,0.7202,0.7201,0,0,0,0,0,0.6787,0.681,0.6819,0.6831,0.69,0.6944,0.6953,0.6982,0.6983,0.6995,0.7025,0.704,0.7123,0.7114,0.7125,0.7137,0.722,0.7221,0.7222,0.7202,0.7202,0.7201,0,0,0,0,0,0,0.6761,0.6817,0.6828,0.6867,0.69,0.6949,0.6966,0.6981,0.7015,0.7016,0.705,0.7061,0.7098,0.7122,0.7111,0.717,0.7172,0.7176,0.7153,0.7153,0.7153,0.7147,0.7128,0,0,0,0,0,0.6759,0.679,0.6837,0.6868,0.6884,0.6922,0.6942,0.6961,0.6997,0.7012,0.7044,0.7079,0.7113,0.7134,0.7168,0.7205,0.7216,0.7219,0.7219,0.7218,0.7221,0.7242,0.7243,0.7226,0.7226,0.7226,0,0,0.6757,0.6792,0.6809,0.6863,0.6891,0.6922,0.6934,0.6966,0.6989,0.7017,0.7056,0.7081,0.7121,0.716,0.7178,0.7181,0.7228,0.722,0.7219,0.7222,0.7243,0.7245,0.7246,0.7227,0.7227,0.7227,0,0,0.6769,0.6798,0.6826,0.6854,0.6896,0.6921,0.6928,0.6975,0.6992,0.7031,0.7053,0.7081,0.7139,0.7167,0.7188,0.7209,0.7224,0.722,0.7219,0.7239,0.724,0.7242,0.7249,0.7251,0.7222,0.7222,0.7222,0,0.6761,0.6809,0.6839,0.687,0.6893,0.6919,0.6947,0.6973,0.7024,0.7039,0.7041,0.7113,0.7143,0.7187,0.7192,0.7209,0.7218,0.7214,0.7237,0.7239,0.7241,0.7248,0.7251,0.7221,0.7221,0.7221,0.7221,0,0.6797,0.6829,0.6847,0.6895,0.692,0.6949,0.6984,0.7005,0.7022,0.7047,0.7087,0.7122,0.7164,0.7176,0.7193,0.7223,0.7223,0.7231,0.7234,0.7241,0.7249,0.7252,0.722,0.722,0.722,0.7221,0,0,0.6795,0.6859,0.6865,0.6887,0.6935,0.696,0.6991,0.703,0.7048,0.7082,0.7108,0.7156,0.7163,0.7188,0.7209,0.7226,0.724,0.7232,0.7233,0.7232,0.7274,0.7268,0.7271,0.725,0.725,0.7251,0.7271,0,0.6813,0.6869,0.6896,0.694,0.697,0.6994,0.7021,0.7053,0.7077,0.7106,0.7132,0.7165,0.7172,0.7187,0.7205,0.7234,0.7249,0.7233,0.7275,0.7276,0.7263,0.7275,0.7269,0.7286,0.7274,0.7275,0.7275,0,0.6842,0.6875,0.6922,0.6965,0.6979,0.7002,0.704,0.7068,0.7105,0.7121,0.7147,0.7167,0.72,0.72,0.7246,0.7235,0.7253,0.727,0.7271,0.7276,0.7276,0.728,0.7292,0.7295,0.728,0.728,0.7279,0,0.6836,0.6892,0.6927,0.6945,0.6997,0.7013,0.7035,0.7071,0.7093,0.7127,0.7141,0.7178,0.7198,0.7226,0.7256,0.7253,0.7298,0.7301,0.7312,0.7311,0.7321,0.732,0.7336,0.7333,0.7332,0.7332,0.7332,0,0.6853,0.688,0.6925,0.6946,0.6977,0.7009,0.7039,0.7063,0.7095,0.7121,0.7145,0.7169,0.7206,0.7235,0.7258,0.7292,0.7301,0.7315,0.732,0.7313,0.7311,0.7325,0.7325,0.7333,0.7333,0.7333,0.7333,0,0.6852,0.6883,0.6922,0.6968,0.698,0.7,0.704,0.7061,0.7086,0.7119,0.7128,0.7167,0.7202,0.7234,0.7281,0.7296,0.733,0.7338,0.7318,0.7321,0.733,0.7329,0.7356,0.7361,0.7354,0.7354,0.7354,0,0.6861,0.6882,0.693,0.6949,0.6971,0.7001,0.7024,0.7055,0.7077,0.712,0.7136,0.7173,0.7204,0.7259,0.7291,0.7327,0.7336,0.7343,0.7341,0.7332,0.7335,0.7334,0.7336,0.7342,0.7342,0.7342,0.7342,0,0.6873,0.6887,0.6918,0.6954,0.698,0.701,0.7041,0.7056,0.7093,0.7116,0.7152,0.7176,0.7223,0.726,0.7299,0.7322,0.7338,0.7342,0.7347,0.7339,0.7326,0.7333,0.7317,0.7342,0.7342,0.7342,0.7342,0.7342,0.6877,0.6897,0.6933,0.6967,0.6993,0.7021,0.7044,0.7071,0.7101,0.7142,0.7158,0.7195,0.723,0.7285,0.7308,0.7337,0.734,0.7346,0.7348,0.7349,0.7347,0.7321,0.7344,0.7344,0.7344,0.7344,0.7344,0,0.6891,0.6915,0.6946,0.6988,0.7014,0.7026,0.7061,0.7082,0.7114,0.7145,0.7175,0.7216,0.7251,0.7286,0.7322,0.7339,0.7347,0.7348,0.7347,0.7352,0.7343,0.7335,0.734,0.734,0.734,0.734,0.734,0.734,0.6901,0.6935,0.6953,0.7,0.7025,0.706,0.7079,0.7105,0.713,0.7175,0.7204,0.7226,0.7259,0.7298,0.733,0.734,0.7352,0.735,0.7361,0.7352,0.7352,0.7352,0.7345,0.7353,0.7353,0.7368,0.7368,0.7368]},{"header":{"parameterUnit":"m.s-1","parameterCategory":1,"la1":30.2991,"la2":30.254,"lo1":-89.0895,"lo2":-89.0444,"dy":0.0017,"dx":0.0017,"nx":28,"ny":28,"refTime":"2023-08-01T03:00:00:Z","depth":0,"parameterNumber":3,"parameterNumberName":"V-component_of_WINDS"},"data":[0,0,0,0,0,0,0,0,0,0,0,0,0,0,0,0,0,0,0,0,0,0,0,0,0,0,0,0,0,0,0,0,0,0,0,0,0,0,0,0,0,0,0,0,0,0,0,0,0,0,0,0,0,0,0,0,0,0,1.7455,1.7454,0,1.7344,1.7343,1.7342,1.7235,1.7234,1.7232,1.7231,1.7113,1.7111,1.7109,0,0,0,0,0,0,0,0,0,0,0,0,0,1.7571,1.757,1.7456,1.7454,1.7453,1.7344,1.7343,1.7341,1.7235,1.7234,1.7232,1.7231,1.7114,1.7111,1.7109,0,0,0,0,0,0,0,0,0,0,0,0,0,1.7497,1.7569,1.7456,1.7387,1.738,1.7345,1.7343,1.7341,1.7236,1.7234,1.7232,1.723,1.7114,1.7112,1.7109,1.7132,0,0,1.71,1.7099,0,0,0,0,0,0,0,0,1.7501,1.7492,1.7398,1.7392,1.7383,1.7302,1.734,1.7271,1.7236,1.729,1.7231,1.7229,1.7177,1.7169,1.7152,1.7126,1.7121,1.71,1.7098,1.7097,1.7096,0,0,0,0,0,0,0,1.7506,1.7497,1.7411,1.7397,1.7388,1.736,1.7347,1.7327,1.7246,1.7285,1.7277,1.7266,1.7173,1.7155,1.7149,1.7119,1.71,1.7098,1.7096,1.7095,1.7104,1.7106,0,0,0,0,0,0,1.7523,1.7502,1.7415,1.7408,1.7439,1.736,1.7345,1.733,1.7246,1.7232,1.7268,1.7261,1.7161,1.7152,1.7144,1.7164,1.7097,1.7094,1.7093,1.7102,1.7104,1.7107,0,0,0,0,0,0,1.7525,1.7516,1.7419,1.7453,1.7438,1.736,1.7343,1.7329,1.7311,1.7233,1.7218,1.7265,1.7159,1.7148,1.7135,1.7159,1.7093,1.7091,1.71,1.7103,1.7106,1.7206,0,0,0,0,0,0,1.7529,1.7518,1.7527,1.7454,1.7437,1.7414,1.7345,1.7328,1.7307,1.7298,1.7227,1.7213,1.7157,1.714,1.7133,1.7154,1.7088,1.7097,1.7101,1.7105,1.72,1.7212,1.7222,0,0,0,0,0,1.7534,1.7559,1.7528,1.7518,1.7447,1.7416,1.7406,1.7343,1.731,1.7317,1.7267,1.7215,1.7158,1.714,1.713,1.7151,1.7096,1.71,1.7104,1.7195,1.721,1.7222,0,0,0,0,0,0,1.7636,1.7548,1.7513,1.7515,1.7474,1.7398,1.7406,1.736,1.7326,1.7319,1.724,1.7224,1.722,1.7184,1.7166,1.7168,1.7119,1.7122,1.7192,1.7205,1.7215,1.7224,1.7086,0,0,0,0,0,1.7659,1.7643,1.7566,1.7576,1.7557,1.7486,1.747,1.7424,1.7378,1.7359,1.7307,1.7263,1.7234,1.7217,1.7187,1.7194,1.7176,1.7203,1.7214,1.7224,1.7227,1.7226,1.7237,1.7121,1.7121,1.7121,0,0,1.7706,1.7656,1.765,1.7595,1.7558,1.7541,1.7471,1.7457,1.7443,1.7356,1.7341,1.7302,1.7247,1.7244,1.724,1.7213,1.7255,1.7229,1.7237,1.7235,1.7232,1.7243,1.7253,1.7124,1.7123,1.7123,0,0,1.7783,1.7745,1.7748,1.7712,1.7656,1.7608,1.7609,1.754,1.7511,1.7495,1.7429,1.741,1.7363,1.7326,1.7302,1.7363,1.7314,1.7356,1.7412,1.7413,1.7422,1.743,1.745,1.7459,1.7359,1.7359,1.7359,0,1.7849,1.7822,1.7755,1.7744,1.7721,1.7643,1.7644,1.7612,1.7549,1.7534,1.7506,1.7445,1.7402,1.7389,1.7404,1.7387,1.7383,1.7363,1.7426,1.7433,1.7439,1.7458,1.7467,1.7365,1.7364,1.7363,1.7363,0,1.7904,1.7887,1.7896,1.7838,1.7816,1.7812,1.7742,1.7727,1.7683,1.7638,1.7621,1.7567,1.7524,1.7517,1.7474,1.7497,1.7482,1.7441,1.7391,1.7457,1.7473,1.748,1.7372,1.737,1.7369,1.7367,0,0,1.8044,1.7948,1.7953,1.7925,1.7858,1.7842,1.7833,1.7792,1.778,1.7738,1.7728,1.769,1.7651,1.7623,1.7574,1.7575,1.7625,1.7533,1.753,1.7551,1.7646,1.7677,1.7687,1.7592,1.7593,1.7594,1.765,0,1.8109,1.809,1.8028,1.8027,1.8009,1.7934,1.7926,1.7882,1.7839,1.7816,1.7767,1.7741,1.7693,1.7675,1.7672,1.762,1.7643,1.7615,1.758,1.758,1.7596,1.7695,1.7728,1.7784,1.7656,1.7657,1.7658,0,1.8183,1.8148,1.8145,1.8077,1.8067,1.8061,1.8018,1.7997,1.7946,1.7914,1.7883,1.7829,1.7813,1.7766,1.7742,1.7725,1.7706,1.7678,1.7679,1.7673,1.7623,1.7692,1.78,1.7809,1.7668,1.7667,1.7666,0,1.8284,1.8235,1.8227,1.8206,1.8127,1.8124,1.809,1.8037,1.8016,1.7977,1.7962,1.7922,1.79,1.7869,1.7804,1.7777,1.7787,1.7736,1.7759,1.7761,1.7764,1.7765,1.7871,1.7754,1.7754,1.7753,1.7753,0,1.8363,1.8364,1.8271,1.8267,1.8265,1.8193,1.8193,1.8152,1.8105,1.8089,1.8021,1.8007,1.7923,1.7899,1.7849,1.7836,1.7826,1.7799,1.7785,1.7805,1.7809,1.7792,1.7786,1.7756,1.7755,1.7755,1.7754,0,1.8475,1.8414,1.84,1.8326,1.8307,1.8309,1.8245,1.8236,1.8188,1.8169,1.816,1.8085,1.8053,1.7986,1.7936,1.7901,1.79,1.7876,1.7918,1.791,1.7937,1.7935,1.8036,1.8045,1.7923,1.7924,1.7925,0,1.853,1.8529,1.8455,1.8441,1.841,1.8387,1.8365,1.8294,1.8273,1.8214,1.8212,1.8175,1.8142,1.8094,1.8033,1.7994,1.7968,1.8006,1.7962,1.7981,1.7968,1.7969,1.7967,1.8016,1.8018,1.8019,1.802,0,1.8633,1.8602,1.8574,1.8535,1.8511,1.8477,1.8438,1.8429,1.8348,1.8328,1.8296,1.827,1.8218,1.8182,1.8133,1.8096,1.8044,1.8035,1.8038,1.8058,1.8082,1.8068,1.7945,1.8033,1.8032,1.8031,1.803,1.8029,1.8718,1.8713,1.866,1.8631,1.8594,1.856,1.8548,1.8499,1.8471,1.8424,1.8383,1.8354,1.83,1.8229,1.8196,1.817,1.8145,1.815,1.8151,1.8153,1.8161,1.8086,1.8161,1.816,1.816,1.816,1.8159,0,1.8817,1.8779,1.8752,1.8701,1.8677,1.8632,1.8586,1.8569,1.8545,1.85,1.8468,1.843,1.8394,1.833,1.8288,1.828,1.8255,1.8271,1.8271,1.8263,1.8186,1.8188,1.8292,1.8292,1.8292,1.8292,1.8292,1.8292,1.8865,1.8855,1.8818,1.8788,1.8749,1.8721,1.8699,1.8666,1.8629,1.859,1.856,1.8519,1.8466,1.842,1.8384,1.8366,1.8353,1.8377,1.8351,1.8281,1.8269,1.8257,1.8257,1.8375,1.8375,1.843,1.843,1.8431]}]]